{"data":{"norad_id":69461,"epoch":"2026-09-20T03:22:40.539072Z","epoch_age_seconds":56454,"freshness":"FRESH","line1":"1 69461U 26127U   26263.14074698  .00018204  00000+0  54822-3 0  9990","line2":"2 69461  53.1570 167.6300 0001091  99.2209 260.8917 15.34420912 16139","mean_motion":15.34420912,"eccentricity":0.0001091,"inclination_deg":53.157,"raan_deg":167.63,"arg_perigee_deg":99.2209,"mean_anomaly_deg":260.8917,"bstar":0.00054822,"rev_number":1613,"period_min":93.84647906832,"perigee_km":461.89475715282,"apogee_km":463.38741493119,"semimajor_km":6840.778086042,"source":"CELESTRAK","updated_at":"2026-09-20T09:00:44.202482Z"}}